Weather in Raymah

Yemen     14°39′37″N   43°40′13″E
temp.,
°C
wind,
m/s
gust,
m/s
humid.,
%
clouds,
%
prec.,
mm/h
press.,
hPa
HPBL,
m
18 may, tue
tue1800:00+25se115450 0.0 101143
03:00+24se115829 0.0 101017
06:00+24e225647 0.0 101119
09:00+28wnw11385 0.0 1011838
12:00+30wnw443696 0.0 10092173
15:00+27wsw334889 0.7 10101250
18:00+27wsw2136100 0.4 1011984
21:00+26ssw123873 0.6 1012307
19 may, wed
wed1900:00+24ese225920 0.0 101249
03:00+24ese2259100 0.0 101018
06:00+24e2255100 0.0 101114
09:00+28ne1134100 0.0 1011557
12:00+32wnw4623100 0.0 10082777
15:00+30wnw5535100 0.0 10071231
18:00+28wnw434344 0.0 1009889
21:00+26wnw014977 0.0 1011182
20 may, thu
thu2000:00+25e115258 0.0 101020
03:00+24ese115318 0.0 100811
06:00+24e225125 0.0 101012
09:00+30ene121896 0.0 1010992
12:00+33wnw261152 0.0 10093393
15:00+32wnw65263 0.0 10071715
18:00+30wnw44355 0.0 1008829
21:00+27nw12460 0.0 1010107
21 may, fri
fri2100:00+26se11461 0.0 101013
03:00+25e22455 0.0 100911
06:00+25ese33348 0.0 101115
09:00+30e24147 0.0 10121444
12:00+33wnw25168 0.0 10093335
15:00+30wnw65427 0.0 10091138
18:00+27w335130 0.0 1010902
21:00+26w1154100 0.0 1012417
22 may, sat
sat2200:00+25n1157100 0.0 101290
03:00+24e1161100 0.0 101113
06:00+24ese2260100 0.0 101217
09:00+28n0137100 0.0 1012830
12:00+32wnw352191 0.0 10103292
15:00+30wnw643799 0.0 10091665
18:00+28w4347100 0.1 10101203
21:00+26w11525 0.2 1012419